This demonstration page uses our WeatherBlox Daily Observations layout. Learn more.

Left ArrowRight Arrow

39.12711, -84.51439

Hourly Observations for November 27, 2020

Temp ( °F °C ) Dew Point ( °F °C ) Humidity (%) Winds ( mph kmh ) Pressure ( in mb ) Visibility ( mi km ) Precip ( " mm )
12:53 am 00:53 Cloudy 50 10 41 5 71 71 WSW 6 9 30.12 1020 10 16 0.00 0.00
1:53 am 01:53 Cloudy 49 9.4 43 6.1 80 80 SW 6 9 30.12 1020 10 16 0.00 0.00
2:53 am 02:53 Cloudy 48 8.9 42 5.6 80 80 WSW 6 9 30.13 1020 10 16 0.00 0.00
3:53 am 03:53 Cloudy 48 8.9 42 5.6 80 80 SW 5 7 30.14 1021 10 16 0.00 0.00
4:53 am 04:53 Cloudy 49 9.4 41 5 74 74 Calm 30.13 1020 10 16 0.00 0.00
5:53 am 05:53 Cloudy 47 8.3 43 6.1 86 86 Calm 30.14 1021 10 16 0.00 0.00
6:14 am 06:14 Cloudy 48 8.9 42 5.6 80 80 SW 3 6 30.15 1021 10 16 0.00 0.00
6:53 am 06:53 Cloudy 48 8.9 40 4.4 74 74 WSW 7 11 30.15 1021 10 16 0.00 0.00
7:53 am 07:53 Cloudy 48 8.9 41 5 77 77 W 3 6 30.15 1021 10 16 0.00 0.00
8:53 am 08:53 Cloudy 49 9.4 39 3.9 69 69 WNW 5 7 30.16 1021 10 16 0.00 0.00
9:53 am 09:53 Cloudy 50 10 39 3.9 66 66 SW 6 9 30.16 1022 10 16 0.00 0.00
10:53 am 10:53 Cloudy 51 10.6 40 4.4 66 66 W 5 7 30.16 1021 10 16 0.00 0.00
11:53 am 11:53 Cloudy 53 11.7 39 3.9 59 59 VRB 3 6 30.14 1021 10 16 0.00 0.00
12:53 pm 12:53 Mostly Sunny 55 12.8 40 4.4 57 57 WNW 6 9 30.10 1019 10 16 0.00 0.00
1:53 pm 13:53 Sunny 55 12.8 40 4.4 57 57 Calm 30.08 1019 10 16 0.00 0.00
2:53 pm 14:53 Mostly Cloudy 55 12.8 39 3.9 55 55 VRB 5 7 30.06 1018 10 16 0.00 0.00
3:53 pm 15:53 Cloudy 55 12.8 41 5 59 59 SW 5 7 30.06 1018 10 16 0.00 0.00
4:53 pm 16:53 Cloudy 52 11.1 41 5 66 66 SW 5 7 30.08 1019 10 16 0.00 0.00
5:53 pm 17:53 Cloudy 52 11.1 41 5 66 66 Calm 30.08 1019 10 16 0.00 0.00
6:53 pm 18:53 Cloudy 50 10 42 5.6 74 74 Calm 30.09 1019 10 16 0.00 0.00
7:53 pm 19:53 Cloudy 49 9.4 43 6.1 80 80 Calm 30.08 1019 10 16 0.00 0.00
8:53 pm 20:53 Partly Cloudy 50 10 39 3.9 66 66 VRB 5 7 30.08 1019 10 16 0.00 0.00
9:53 pm 21:53 Clear 47 8.3 38 3.3 71 71 Calm 30.09 1019 10 16 0.00 0.00
10:53 pm 22:53 Clear 47 8.3 39 3.9 74 74 NNW 3 6 30.10 1019 10 16 0.00 0.00
11:53 pm 23:53 Clear 46 7.8 38 3.3 73 73 NW 3 6 30.11 1020 10 16 0.00 0.00

Powered by AerisWeather